TimeEST,TemperatureF,Dew PointF,Humidity,Sea Level PressureIn,VisibilityMPH,Wind Direction,Wind SpeedMPH,Gust SpeedMPH,PrecipitationIn,Events,Conditions,WindDirDegrees,DateUTC
12:55 AM,36.7,35.6,96,30.22,10.0,NW,5.8,-,N/A,,Clear,320,2013-01-07 05:55:00
1:55 AM,35.4,33.4,92,30.24,10.0,West,3.5,-,N/A,,Clear,280,2013-01-07 06:55:00
2:55 AM,36.5,35.8,97,30.24,10.0,Calm,Calm,-,N/A,,Partly Cloudy,0,2013-01-07 07:55:00
3:29 AM,33.8,33.8,100,30.25,2.0,Calm,Calm,-,N/A,,Clear,0,2013-01-07 08:29:00
3:30 AM,33.8,33.8,100,30.25,1.5,Calm,Calm,-,N/A,,Clear,0,2013-01-07 08:30:00
3:31 AM,33.8,33.8,100,30.25,1.2,Calm,Calm,-,N/A,,Clear,0,2013-01-07 08:31:00
3:32 AM,33.8,32.0,93,30.25,1.0,Calm,Calm,-,N/A,,Clear,0,2013-01-07 08:32:00
3:35 AM,33.8,33.8,100,30.25,0.8,Calm,Calm,-,N/A,,Clear,0,2013-01-07 08:35:00
3:36 AM,33.8,33.8,100,30.25,0.8,Calm,Calm,-,N/A,,Clear,0,2013-01-07 08:36:00
3:38 AM,33.8,33.8,100,30.25,1.0,Calm,Calm,-,N/A,,Clear,0,2013-01-07 08:38:00
3:40 AM,33.8,33.8,100,30.25,1.2,Calm,Calm,-,N/A,,Clear,0,2013-01-07 08:40:00
3:41 AM,33.8,33.8,100,30.25,1.0,Calm,Calm,-,N/A,,Clear,0,2013-01-07 08:41:00
3:46 AM,32.0,32.0,100,30.26,0.8,Calm,Calm,-,N/A,,Clear,0,2013-01-07 08:46:00
3:49 AM,32.0,32.0,100,30.26,0.5,Calm,Calm,-,N/A,Fog,Fog,0,2013-01-07 08:49:00
3:54 AM,32.0,32.0,100,30.26,0.5,Calm,Calm,-,N/A,Fog,Light Freezing Fog,0,2013-01-07 08:54:00
3:55 AM,31.8,31.5,99,30.26,0.5,Calm,Calm,-,N/A,Fog,Light Freezing Fog,0,2013-01-07 08:55:00
4:03 AM,32.0,32.0,100,30.25,0.5,NNW,3.5,-,N/A,Fog,Fog,330,2013-01-07 09:03:00
4:06 AM,32.0,32.0,100,30.26,0.8,NNW,4.6,-,N/A,,Clear,330,2013-01-07 09:06:00
4:09 AM,32.0,32.0,100,30.25,1.0,NW,4.6,-,N/A,,Clear,320,2013-01-07 09:09:00
4:22 AM,32.0,32.0,100,30.25,1.0,NW,3.5,-,N/A,,Clear,320,2013-01-07 09:22:00
4:23 AM,32.0,32.0,100,30.25,1.2,NW,3.5,-,N/A,,Clear,320,2013-01-07 09:23:00
4:24 AM,32.0,32.0,100,30.25,1.5,NW,3.5,-,N/A,,Clear,320,2013-01-07 09:24:00
4:25 AM,32.0,32.0,100,30.25,1.8,NW,3.5,-,N/A,,Clear,320,2013-01-07 09:25:00
4:26 AM,32.0,32.0,100,30.26,2.0,NW,3.5,-,N/A,,Clear,320,2013-01-07 09:26:00
4:28 AM,32.0,32.0,100,30.26,3.0,NW,3.5,-,N/A,,Clear,310,2013-01-07 09:28:00
4:49 AM,32.0,32.0,100,30.26,2.5,West,3.5,-,N/A,,Clear,280,2013-01-07 09:49:00
4:54 AM,32.0,32.0,100,30.27,3.0,WNW,3.5,-,N/A,,Clear,290,2013-01-07 09:54:00
4:55 AM,31.6,31.5,99,30.27,3.0,WNW,3.5,-,N/A,,Clear,290,2013-01-07 09:55:00
5:23 AM,32.0,32.0,100,30.27,10.0,WNW,3.5,-,N/A,Fog,Patches of Fog,300,2013-01-07 10:23:00
5:55 AM,32.0,31.8,99,30.29,10.0,WNW,3.5,-,N/A,Fog,Patches of Fog,290,2013-01-07 10:55:00
6:55 AM,29.1,28.8,99,30.32,10.0,NW,3.5,-,N/A,Fog,Patches of Fog,320,2013-01-07 11:55:00
7:55 AM,31.3,31.1,99,30.35,10.0,Calm,Calm,-,N/A,,Mostly Cloudy,0,2013-01-07 12:55:00
8:55 AM,36.5,36.1,99,30.38,10.0,Calm,Calm,-,N/A,,Mostly Cloudy,0,2013-01-07 13:55:00
9:55 AM,43.9,32.5,64,30.41,10.0,NNE,6.9,-,N/A,,Scattered Clouds,30,2013-01-07 14:55:00
10:55 AM,46.9,32.7,58,30.42,10.0,NE,6.9,-,N/A,,Scattered Clouds,50,2013-01-07 15:55:00
10:58 AM,46.4,32.0,57,30.42,10.0,Variable,6.9,-,N/A,,Light Drizzle,0,2013-01-07 15:58:00
11:04 AM,48.2,33.8,58,30.42,10.0,NNE,9.2,-,N/A,,Clear,20,2013-01-07 16:04:00
11:07 AM,48.2,32.0,54,30.42,10.0,NE,9.2,-,N/A,,Partly Cloudy,40,2013-01-07 16:07:00
11:55 AM,50.2,32.5,51,30.41,10.0,NNE,8.1,-,N/A,,Partly Cloudy,20,2013-01-07 16:55:00
12:55 PM,52.2,31.5,45,30.38,10.0,Variable,3.5,-,N/A,,Partly Cloudy,0,2013-01-07 17:55:00
1:55 PM,54.5,31.3,41,30.37,10.0,East,6.9,-,N/A,,Partly Cloudy,80,2013-01-07 18:55:00
2:55 PM,54.9,30.6,40,30.36,10.0,NE,9.2,-,N/A,,Partly Cloudy,40,2013-01-07 19:55:00
3:55 PM,54.7,30.6,40,30.37,10.0,East,8.1,-,N/A,,Scattered Clouds,90,2013-01-07 20:55:00
4:55 PM,50.7,31.5,48,30.38,10.0,NE,3.5,-,N/A,,Mostly Cloudy,50,2013-01-07 21:55:00
5:55 PM,47.7,31.6,54,30.38,10.0,NE,4.6,-,N/A,,Scattered Clouds,40,2013-01-07 22:55:00
6:55 PM,42.6,32.0,66,30.41,10.0,NNE,3.5,-,N/A,,Scattered Clouds,20,2013-01-07 23:55:00
7:55 PM,37.9,33.1,83,30.41,10.0,NNE,3.5,-,N/A,,Mostly Cloudy,30,2013-01-08 00:55:00
8:55 PM,37.0,33.4,87,30.40,10.0,Calm,Calm,-,N/A,,Mostly Cloudy,0,2013-01-08 01:55:00
9:55 PM,35.8,32.9,89,30.41,10.0,Calm,Calm,-,N/A,,Scattered Clouds,0,2013-01-08 02:55:00
10:55 PM,38.5,31.6,76,30.40,10.0,NE,4.6,-,N/A,,Partly Cloudy,40,2013-01-08 03:55:00
11:55 PM,37.0,31.1,79,30.40,10.0,NE,4.6,-,N/A,,Clear,40,2013-01-08 04:55:00